KC1SQ Weather Reports


time (UTC)temp
F
wind
direction
speed
knots
gust
knots
rain 1hr
in
rain 24hr
in
rain mn
in
humidity
%
barometer
mb
20260504180503 65 305 0.0 0.0 0.00 0.00 0.00 29 1005.0
20260504180002 65 238 0.0 0.0 0.00 0.00 0.00 28 1004.9
20260504175501 66 305 0.0 0.0 0.00 0.00 0.00 27 1004.9
20260504174959 66 257 0.0 0.0 0.00 0.00 0.00 27 1004.9
20260504174500 67 280 0.0 0.0 0.00 0.00 0.00 26 1004.9
20260504173958 67 239 0.0 0.0 0.00 0.00 0.00 27 1004.9
20260504173725 66 212 0.0 0.0 0.00 0.00 0.00 27 1004.8
20260504172959 65 250 0.0 0.0 0.00 0.00 0.00 27 1004.9
20260504172459 66 273 0.0 0.0 0.00 0.00 0.00 25 1005.0
20260504171957 67 91 0.0 0.0 0.00 0.00 0.00 24 1005.1
20260504171726 68 51 0.0 0.0 0.00 0.00 0.00 24 1004.9
20260504171216 68 273 0.0 0.0 0.00 0.00 0.00 23 1004.9
20260504170500 67 213 0.0 0.0 0.00 0.00 0.00 25 1004.8
20260504150927 64 198 0.9 7.8 0.00 0.00 0.00 32 1005.7
20260504150428 64 157 0.9 3.5 0.00 0.00 0.00 32 1005.7
20260504140928 58 223 0.0 0.0 0.00 0.00 0.00 42 1006.5
20260504140425 57 241 0.0 0.0 0.00 0.00 0.00 41 1006.4
20260504130423 51 205 0.0 0.0 0.00 0.00 0.00 50 1007.3
20260504110228 45 209 0.0 0.0 0.00 0.00 0.00 54 1007.6
20260504100116 39 234 0.0 0.0 0.00 0.00 0.00 59 1007.5
20260504081916 37 229 0.0 0.0 0.00 0.00 0.00 58 1007.8
20260504081631 37 229 0.0 0.0 0.00 0.00 0.00 58 1007.8
20260504080903 37 229 0.0 0.0 0.00 0.00 0.00 58 1007.8
20260504080358 37 229 0.0 0.0 0.00 0.00 0.00 59 1007.8
20260504070245 35 225 0.0 0.0 0.00 0.00 0.00 61 1007.8
20260504060134 33 187 0.0 0.0 0.00 0.00 0.00 65 1007.4
20260504050558 33 197 0.0 0.0 0.00 0.00 0.00 66 1007.4
20260504045557 34 197 0.0 0.0 0.00 0.00 0.00 65 1007.4
20260504045316 34 197 0.0 0.0 0.00 0.00 0.00 65 1007.3
20260504044826 34 197 0.0 0.0 0.00 0.00 0.00 65 1007.3
20260504044054 34 197 0.0 0.0 0.00 0.00 0.00 64 1007.3
20260504043553 34 197 0.0 0.0 0.00 0.00 0.00 64 1007.3
20260504043052 34 197 0.0 0.0 0.00 0.00 0.00 64 1007.3
20260504042552 34 197 0.0 0.0 0.00 0.00 0.00 64 1007.3
20260504042054 35 197 0.0 0.0 0.00 0.00 0.00 63 1007.4
20260504041554 35 197 0.0 0.0 0.00 0.00 0.00 63 1007.3
20260504041054 35 197 0.0 0.0 0.00 0.00 0.00 63 1007.4
20260504040553 35 197 0.0 0.0 0.00 0.00 0.00 63 1007.3
20260504040053 35 249 0.0 0.0 0.00 0.00 0.00 63 1007.3
20260504035548 35 249 0.0 0.0 0.00 0.00 0.00 62 1007.3
20260504035304 36 249 0.0 0.0 0.00 0.00 0.00 62 1007.4
20260504034536 36 249 0.0 0.0 0.00 0.00 0.00 61 1007.2
20260504034030 36 249 0.0 0.0 0.00 0.00 0.00 61 1007.3
20260504033749 36 249 0.0 0.0 0.00 0.00 0.00 61 1007.2
20260504033021 36 249 0.0 0.0 0.00 0.00 0.00 62 1007.1
20260504032739 36 249 0.0 0.0 0.00 0.00 0.00 62 1007.1
20260504032020 36 249 0.0 0.0 0.00 0.00 0.00 62 1007.1
20260504031519 36 249 0.0 0.0 0.00 0.00 0.00 62 1007.1
20260504031016 36 249 0.0 0.0 0.00 0.00 0.00 62 1007.1
20260504030513 35 249 0.0 0.0 0.00 0.00 0.00 62 1007.1
20260504030010 35 249 0.0 0.0 0.00 0.00 0.00 63 1007.2
20260504025512 35 249 0.0 0.0 0.00 0.01 0.00 64 1007.1
20260504025012 35 249 0.0 0.0 0.00 0.01 0.00 64 1007.1
20260504024511 35 249 0.0 0.0 0.00 0.01 0.00 63 1007.1
20260504024229 35 249 0.0 0.0 0.00 0.01 0.00 64 1007.1
20260504023511 35 249 0.0 0.0 0.00 0.01 0.00 64 1007.2
20260504023012 35 249 0.0 0.0 0.00 0.01 0.00 64 1007.2
20260504022731 36 249 0.0 0.0 0.00 0.01 0.00 63 1007.2
20260504022006 36 249 0.0 0.0 0.00 0.01 0.00 62 1007.3
20260504021506 36 249 0.0 0.0 0.00 0.01 0.00 62 1007.2
20260504021007 37 249 0.0 0.0 0.00 0.01 0.00 61 1007.1
20260504020508 37 249 0.0 0.0 0.00 0.01 0.00 61 1007.2
20260504020008 37 249 0.0 0.0 0.00 0.01 0.00 61 1007.1
20260504015508 38 249 0.0 0.0 0.00 0.01 0.00 60 1007.2
20260504015228 38 249 0.0 0.0 0.00 0.01 0.00 60 1007.1
20260504014734 38 249 0.0 0.0 0.00 0.01 0.00 59 1007.1
20260504014008 38 249 0.0 0.0 0.00 0.01 0.00 58 1007.0
20260504013506 39 249 0.0 0.0 0.00 0.01 0.00 57 1006.9
20260504013007 39 249 0.0 0.0 0.00 0.01 0.00 57 1006.8
20260504012506 40 249 0.0 0.0 0.00 0.01 0.00 57 1006.8
20260504012006 40 249 0.0 0.0 0.00 0.02 0.00 55 1006.8
20260504011508 41 249 0.0 0.0 0.00 0.02 0.00 54 1006.8
20260504011006 42 249 0.0 0.0 0.00 0.02 0.00 53 1006.8
20260504010506 42 249 0.0 0.0 0.00 0.02 0.00 51 1006.8
20260504010005 42 249 0.0 0.0 0.00 0.03 0.00 50 1006.7
20260504005459 43 249 0.0 0.0 0.00 0.03 0.00 49 1006.8
20260504004953 44 249 0.0 0.0 0.00 0.03 0.00 46 1006.7
20260504004448 44 249 0.0 0.0 0.00 0.03 0.00 46 1006.5
20260504003941 44 249 0.0 0.0 0.00 0.03 0.00 45 1006.5
20260504003435 44 249 0.0 0.0 0.00 0.03 0.00 45 1006.4
20260504002929 44 249 0.0 0.0 0.00 0.04 0.00 43 1006.3
20260504002423 45 249 0.0 0.0 0.00 0.04 0.00 45 1006.3
20260504001917 45 249 0.0 0.0 0.00 0.04 0.00 44 1006.2
20260504001410 45 249 0.0 0.9 0.00 0.04 0.00 43 1006.1
20260504001121 45 153 0.0 0.9 0.00 0.04 0.00 41 1006.1
20260504000357 45 238 0.0 0.0 0.00 0.04 0.00 42 1006.0
20260503235851 46 238 0.0 0.0 0.00 0.04 0.00 42 1006.0
20260503235345 46 238 0.0 0.0 0.00 0.04 0.00 42 1006.0
20260503234838 46 261 0.0 0.0 0.00 0.04 0.00 40 1005.9
20260503234605 46 253 0.0 0.0 0.00 0.04 0.00 40 1005.8
20260503233827 47 250 0.0 0.0 0.00 0.04 0.00 39 1005.7
20260503233321 47 272 0.0 0.0 0.00 0.04 0.00 38 1005.6
20260503232815 47 261 0.0 0.0 0.00 0.04 0.00 37 1005.6
20260503232309 47 336 0.0 0.0 0.00 0.04 0.00 36 1005.5
20260503231803 48 279 0.0 0.0 0.00 0.05 0.00 36 1005.3
20260503231257 48 264 0.0 0.0 0.00 0.05 0.00 37 1005.3
20260503230751 48 267 0.0 0.0 0.00 0.05 0.00 37 1005.2
20260503230245 49 267 0.0 0.0 0.00 0.05 0.00 37 1005.2
20260503225739 49 272 0.0 0.0 0.00 0.05 0.00 37 1005.0
20260503225233 49 261 0.0 0.0 0.00 0.05 0.00 37 1004.9
20260503224726 49 278 0.0 0.0 0.00 0.05 0.00 36 1004.9
20260503224220 49 283 0.0 0.0 0.00 0.05 0.00 36 1004.8
20260503223936 50 316 0.0 0.0 0.00 0.05 0.00 36 1004.7
20260503223432 50 296 0.0 0.0 0.00 0.05 0.00 35 1004.6
20260503222704 51 231 0.0 0.0 0.00 0.06 0.00 34 1004.6
20260503222428 51 329 0.0 0.0 0.00 0.06 0.00 35 1004.5
20260503221916 50 267 0.0 0.0 0.00 0.06 0.00 35 1004.6
20260503221405 50 302 0.0 0.0 0.00 0.07 0.00 36 1004.6
20260503220639 50 245 0.0 0.0 0.00 0.07 0.00 35 1004.5
20260503220133 50 288 0.0 0.0 0.00 0.07 0.00 34 1004.2
20260503215627 50 324 0.0 0.0 0.00 0.07 0.00 34 1004.3
20260503215341 50 309 0.0 0.0 0.00 0.08 0.00 35 1004.3
20260503214615 51 319 0.0 0.0 0.00 0.08 0.00 35 1004.3
20260503214109 51 301 0.0 0.0 0.00 0.08 0.00 34 1004.2
20260503213603 51 290 0.0 0.0 0.00 0.08 0.00 36 1004.2
20260503213057 51 288 0.0 0.0 0.00 0.08 0.00 37 1004.2
20260503212551 51 303 0.0 0.0 0.00 0.08 0.00 39 1004.1
20260503212045 50 32 0.0 0.0 0.00 0.08 0.00 40 1004.1
20260503211539 50 318 0.0 0.0 0.00 0.09 0.00 41 1004.1
20260503211250 51 10 0.0 0.0 0.00 0.09 0.00 39 1004.0
20260503210751 51 319 0.0 0.0 0.00 0.09 0.00 40 1003.8
20260503210021 51 320 0.0 0.0 0.00 0.09 0.00 40 1003.8
20260503205511 51 298 0.0 0.0 0.00 0.10 0.00 38 1003.8
20260503205006 51 194 0.0 0.0 0.00 0.10 0.00 39 1003.8
20260503204459 51 329 0.0 0.0 0.00 0.11 0.00 40 1003.8
20260503203953 51 49 0.0 0.0 0.00 0.12 0.00 38 1003.7
20260503203446 51 291 0.0 0.0 0.00 0.12 0.00 39 1003.7
20260503203159 51 319 0.0 0.0 0.00 0.13 0.00 39 1003.8
20260503202436 51 304 0.0 0.0 0.00 0.14 0.00 39 1003.8
20260503201929 52 332 0.0 0.0 0.00 0.14 0.00 39 1003.8
20260503201423 52 302 0.0 0.0 0.00 0.14 0.00 38 1003.9
20260503201135 52 294 0.0 0.0 0.00 0.14 0.00 39 1003.8
20260503200412 52 23 0.0 0.0 0.00 0.15 0.00 37 1003.7
20260503195905 52 331 0.0 0.0 0.00 0.15 0.00 38 1003.8
20260503195359 52 338 0.0 0.0 0.00 0.15 0.00 37 1003.8
20260503194852 53 263 0.0 0.0 0.00 0.15 0.00 36 1003.8
20260503194347 53 295 0.0 0.0 0.00 0.15 0.00 40 1003.8
20260503193842 52 319 0.0 0.0 0.00 0.15 0.00 38 1003.9
20260503193555 52 222 0.0 0.0 0.00 0.15 0.00 40 1003.9
20260503192829 52 284 0.0 0.0 0.00 0.15 0.00 37 1004.0
20260503192815 53 333 0.0 0.0 0.00 0.15 0.00 37 1004.0
20260503191817 53 317 0.0 0.0 0.00 0.15 0.00 37 1004.1
20260503191310 53 309 0.0 0.0 0.00 0.16 0.00 38 1004.2
20260503190805 52 350 0.0 0.0 0.00 0.16 0.00 39 1004.1
20260503190259 52 351 0.0 0.0 0.00 0.16 0.00 41 1004.1
20260503185753 52 0 0.0 0.0 0.00 0.16 0.00 41 1004.2
20260503185247 52 349 0.0 0.0 0.00 0.16 0.00 42 1004.2
20260503184741 53 9 0.0 0.0 0.00 0.16 0.00 40 1004.1
20260503184234 53 323 0.0 0.0 0.00 0.16 0.00 42 1004.1
20260503183956 53 323 0.0 0.0 0.00 0.16 0.00 42 1004.1
20260503183223 53 304 0.0 0.0 0.00 0.16 0.00 41 1004.1
20260503182717 53 264 0.0 0.0 0.00 0.16 0.00 41 1004.1
20260503182211 53 344 0.0 0.0 0.00 0.16 0.00 40 1004.0
20260503181705 52 284 0.0 0.0 0.00 0.16 0.00 43 1004.1
20260503181159 51 321 0.0 0.0 0.00 0.16 0.00 42 1004.1